TimeCST,TemperatureF,Dew PointF,Humidity,Sea Level PressureIn,VisibilityMPH,Wind Direction,Wind SpeedMPH,Gust SpeedMPH,PrecipitationIn,Events,Conditions,WindDirDegrees,DateUTC
12:48 AM,71.6,64.4,78,30.05,7.0,NE,4.6,-,N/A,,Partly Cloudy,40,2012-11-13 06:48:00
1:40 AM,69.8,64.4,83,30.02,7.0,ENE,3.5,-,N/A,,Partly Cloudy,70,2012-11-13 07:40:00
2:41 AM,64.4,62.6,94,30.06,7.0,Calm,Calm,-,N/A,,Partly Cloudy,0,2012-11-13 08:41:00
3:41 AM,62.6,60.8,94,30.02,7.0,Calm,Calm,-,N/A,,Partly Cloudy,0,2012-11-13 09:41:00
4:41 AM,60.8,60.8,100,30.02,7.0,Calm,Calm,-,N/A,,Partly Cloudy,0,2012-11-13 10:41:00
5:45 AM,60.8,60.8,100,30.01,7.0,Calm,Calm,-,N/A,,Clear,0,2012-11-13 11:45:00
6:46 AM,62.6,62.6,100,30.06,8.0,Calm,Calm,-,N/A,,Clear,0,2012-11-13 12:46:00
7:40 AM,73.4,68.0,83,30.07,8.0,East,3.5,-,N/A,,Clear,90,2012-11-13 13:40:00
8:43 AM,78.8,66.2,65,30.12,8.0,NNE,5.8,-,N/A,,Partly Cloudy,20,2012-11-13 14:43:00
9:47 AM,78.8,68.0,69,30.08,8.0,North,10.4,-,N/A,,Scattered Clouds,350,2012-11-13 15:47:00
10:44 AM,78.8,68.0,69,30.07,8.0,North,10.4,-,N/A,,Scattered Clouds,350,2012-11-13 16:44:00
11:52 AM,80.6,68.0,65,30.00,8.0,NE,9.2,-,N/A,,Scattered Clouds,40,2012-11-13 17:52:00
12:52 PM,78.8,68.0,69,30.03,8.0,North,8.1,-,N/A,,Scattered Clouds,10,2012-11-13 18:52:00
1:44 PM,78.8,68.0,69,30.00,8.0,NE,9.2,-,N/A,,Mostly Cloudy,40,2012-11-13 19:44:00
2:41 PM,78.8,68.0,69,30.01,8.0,NE,11.5,-,N/A,,Scattered Clouds,40,2012-11-13 20:41:00
3:43 PM,78.8,64.4,61,29.99,8.0,ENE,9.2,-,N/A,,Scattered Clouds,70,2012-11-13 21:43:00
4:41 PM,75.2,66.2,73,30.00,8.0,NE,6.9,-,N/A,,Scattered Clouds,50,2012-11-13 22:41:00
5:48 PM,73.4,66.2,78,29.96,8.0,Calm,Calm,-,N/A,,Scattered Clouds,0,2012-11-13 23:48:00
6:42 PM,71.6,68.0,88,30.01,8.0,Calm,Calm,-,N/A,,Scattered Clouds,0,2012-11-14 00:42:00
7:48 PM,69.8,68.0,94,30.03,7.0,ENE,3.5,-,N/A,,Scattered Clouds,60,2012-11-14 01:48:00
8:42 PM,69.8,68.0,94,30.07,7.0,ENE,3.5,-,N/A,,Scattered Clouds,60,2012-11-14 02:42:00
9:45 PM,69.8,68.0,94,30.05,7.0,NE,3.5,-,N/A,,Scattered Clouds,50,2012-11-14 03:45:00
10:41 PM,69.8,68.0,94,30.05,7.0,NE,3.5,-,N/A,,Scattered Clouds,40,2012-11-14 04:41:00
11:51 PM,71.6,68.0,88,30.00,7.0,North,5.8,-,N/A,,Scattered Clouds,10,2012-11-14 05:51:00